THORAD AGENA D DEB, 4217

Orbit data source: Space-Track

THORAD AGENA D DEB, 4217 is space debris in LEO originally from a launch on Tue, 30 Sep 1969 UTC launched from the Air Force Western Test Range (AFWTR). Debris objects in space refer to the collection of defunct objects orbiting the Earth. Examples of debris include non-operational satellites, rocket bodies, and fragments generated from explosions, collisions, or faulty payload assembly.

Loading next visibility...
Identifier
4217, 1969-082CG
Orbit
LEO
Country
Flag of USUS
Related business
Manufacturer
Unknown
Mission
Spacecraft
Bus & Motor
Unknown
Mass
Unknown
Launch date (UTC)
1969-09-30 (57 years ago)
Launch vehicle
Unknown
Launch site
Air Force Western Test Range (AFWTR)
Object type
Payload
Rocket body
Debris
Shape & HBR
Unknown shape, 0.8 m
Radar Cross Section
Medium (>0.1 m² and <1 m²)

Expand to show TLE details & history
Last TLE update: 21 hours ago

TLE from 21 hours ago
0 THORAD AGENA D DEB
1 04217U 69082CG  26173.61418137  .00000821  00000-0  26597-3 0  9992
2 04217  70.0369 137.4748 0033762   0.6564 359.4605 14.42027002948585
Epoch: 2026-06-22T14:44Z
TLE epoch observation values (Epoch: 2026-06-22T14:44:25.270Z)
Latitude
0.00007°
Longitude
5.57196°
Altitude
730.1 km
Speed
7.503 km/s
True Right ascension
09h 09m 53s
True Declination
0° 00' 00"
Sunlit
Object was in daylight at epoch
Visualization orbit readout
Latitude
Unknown
Longitude
Unknown
Altitude
Unknown
Speed
Unknown
Apparent Right ascension
Unknown
Apparent Declination
Unknown
Sunlit
N/A
Visualization observer readout
Local Sidereal Time
22:29:56
Azimuth
Unknown
Elevation
Unknown
Doppler factor
Unknown
Orbital elements
Apogee altitude
773.871 km
Perigee altitude
725.74 km
Semi-major axis
7,127.942 km
Eccentricity
0.00338
Inclination
70.0369°
RAAN
137.4748°
Arg. of periapsis
0.6564°
True anomaly
359.45684°
Mean anomaly
359.4605°
Eccentric anomaly
359.45867°
Mean motion
3.60659 °/min
Orbital period
99.82 mins
BSTAR
0.00026597
Loading maneuver chart data...
Computing Atmospheric mass density...

Documentation

Showing up to 5 results
|